sat.trackr.live / text

‹ back to catalog

LINGQIAO VIDEO A

NORAD 40959 · 2015-057B

PAYLOAD ACTIVE UNKNOWN

§ Identity

Operator
Country
PRC
Launch date
2015-10-07
Launch site
JSC
Launch vehicle
Mass (kg)
RCS (m²)
0.45

External: N2YO · Heavens-Above · Gunter

§ Orbital elements

Epoch: 2026-05-25T04:45:32.486688Z

Period
97.47 min
Inclination
97.6622°
Eccentricity
0.0016608
Mean motion
14.77354101 rev/d
Perigee alt
626.0 km
Apogee alt
649.3 km
Semi-major
7,015.8 km
B*
6.8386e-5
RAAN
141.1364°
Arg perigee
349.8034°
Mean anomaly
10.2838°
Rev number
57,201

§ Raw data

LINGQIAO VIDEO A1 40959U 15057B   26145.19829267  .00000438  00000+0  68386-4 0  99962 40959  97.6622 141.1364 0016608 349.8034  10.2838 14.77354101572013

JSON: /api/v1/satellites/40959 · /tle

For live sub-satellite position, see the globe view (requires WebGL).

§ Visibility from observer

Set your observer location to see the next 7 days of passes ≥ 10°. The values pass through the URL so the page stays shareable.

No JS? Fill the form by hand. The geolocation button needs JavaScript.